Location: Fredericksburg
(30.2750°N, 98.8720°W)
Time: 00:33:56
(UTC-05:00)

Amateur Radio Satellites - All Passes

Search period start: 26 September 2017 00:03
Search period end: 27 September 2017 00:03
Location: Fredericksburg, 30.2750°N, 98.8720°W

Satellite Date Start Highest point End Downlink Frequencies (MHz)
Time Altitude Azimuth
TIGRISAT 26 Sep 00:04:52 00:09:08 36° 287° (WNW) 00:13:25 435.000
ESTCUBE 1 26 Sep 00:15:30 00:19:59 65° 76° (ENE) 00:24:28 437.505/2401.250
SPROUT 26 Sep 00:15:57 00:17:42 12° 68° (ENE) 00:19:29 437.525
QB50P2 26 Sep 00:20:10 00:22:00 12° 94° (E) 00:23:51 145.880/145.840
SRMSAT 26 Sep 00:28:49 00:33:44 27° 187° (S) 00:38:38 437.500
SO-50 26 Sep 00:31:25 00:35:35 34° 248° (WSW) 00:39:47 436.795
VELOX 1 26 Sep 00:35:11 00:37:53 16° 69° (ENE) 00:40:37 145.980
PCSat 26 Sep 00:36:23 00:41:46 61° 64° (ENE) 00:47:05 145.827
AIST 2D 26 Sep 00:37:26 00:40:54 61° 100° (E) 00:44:19 435.315
YUBILEINY 26 Sep 00:43:19 00:52:04 81° 266° (W) 01:00:51 435.215
NANOSAT C BR1 26 Sep 00:51:26 00:54:58 25° 97° (E) 00:58:27 145.865
LO-87 26 Sep 00:57:11 00:59:32 17° 264° (W) 01:01:54 145.935 - 145.965
DUCHIFAT 1 26 Sep 01:17:55 01:22:02 47° 100° (E) 01:26:06 145.980
DX 1 26 Sep 01:35:17 01:38:22 19° 70° (ENE) 01:41:28 434.975-435.025
POLYITAN 1 26 Sep 01:35:32 01:39:49 76° 284° (WNW) 01:44:05 437.675
EO-79 26 Sep 01:39:05 01:43:20 68° 284° (WNW) 01:47:34 145.935-145.965
BUGSAT 1 26 Sep 01:43:34 01:46:49 21° 97° (E) 01:50:05 437.445
50 SAT 26 Sep 01:48:52 01:51:49 31° 75° (ENE) 01:54:47 437.505
SPROUT 26 Sep 01:49:13 01:53:11 40° 261° (W) 01:57:10 437.525
Oscar 19 26 Sep 01:52:05 01:54:11 12° 93° (E) 01:56:17 437.125/150
QB50P2 26 Sep 01:53:53 01:57:53 38° 286° (WNW) 02:01:50 145.880/145.840
VELOX 1 26 Sep 02:10:04 02:14:01 33° 261° (W) 02:17:59 145.980
SRMSAT 26 Sep 02:18:41 02:22:20 17° 196° (SSW) 02:26:01 437.500
PCSat 26 Sep 02:22:21 02:24:32 12° 257° (WSW) 02:26:42 145.827
O/OREOS (USA 219) 26 Sep 02:25:21 02:29:47 66° 107° (ESE) 02:34:16 437.305
NANOSAT C BR1 26 Sep 02:27:22 02:30:27 20° 289° (WNW) 02:33:32 145.865
YUBILEINY 26 Sep 02:45:54 02:47:26 11° 281° (WNW) 02:48:57 435.215
M-CUBED/EXP-1 PRIME 26 Sep 02:49:44 02:52:46 37° 289° (WNW) 02:55:47 437.505
Tancredo 1 26 Sep 02:55:31 02:58:10 66° 228° (SW) 03:00:47 437.200
DUCHIFAT 1 26 Sep 02:56:10 02:57:12 11° 292° (WNW) 02:58:15 145.980
ISS 26 Sep 02:57:17 02:58:43 12° 34° (NE) 03:00:10 437.550
UKube-1 26 Sep 02:57:25 03:01:40 64° 258° (WSW) 03:05:56 .
DX 1 26 Sep 03:10:41 03:14:19 26° 262° (W) 03:17:58 434.975-435.025
BEESAT 26 Sep 03:14:01 03:17:15 19° 69° (ENE) 03:20:30 436.000
BUGSAT 1 26 Sep 03:18:42 03:22:01 23° 288° (WNW) 03:25:20 437.445
MOZHAYETS 4 26 Sep 03:21:37 03:25:04 21° 70° (ENE) 03:28:31
Oscar 19 26 Sep 03:28:43 03:33:45 55° 286° (WNW) 03:38:44 437.125/150
nSIGHT-1 26 Sep 03:30:23 03:33:13 27° 40° (NE) 03:36:03 .
Gurwin Techsat 1B 26 Sep 03:34:49 03:40:08 76° 284° (WNW) 03:45:25 435.225
AO-7 26 Sep 03:43:49 03:49:14 19° 96° (E) 03:54:35 .
RS-15 26 Sep 03:53:02 04:01:37 23° 101° (E) 04:10:15 29.354- 29.394
ITUPSAT 1 26 Sep 04:15:04 04:19:49 90° 223° (SW) 04:24:37 437.325
ISS 26 Sep 04:32:12 04:35:26 54° 229° (SW) 04:38:38 437.550
ITAMSAT 1 26 Sep 04:39:33 04:44:22 38° 99° (E) 04:49:10 435.822/435.867
BEESAT 26 Sep 04:50:25 04:54:43 34° 261° (W) 04:59:03 436.000
MOZHAYETS 4 26 Sep 04:58:03 05:01:59 28° 263° (W) 05:05:56
KKS-1 26 Sep 04:59:27 05:02:03 16° 69° (ENE) 05:04:40 437.445
nSIGHT-1 26 Sep 05:07:08 05:09:22 17° 233° (SW) 05:11:35 .
BEESAT 3 26 Sep 05:30:01 05:33:57 77° 243° (WSW) 05:37:47 437.485
CUBESAT XI-V 26 Sep 05:30:52 05:35:32 66° 259° (W) 05:40:13 437.345
AO-7 26 Sep 05:34:11 05:42:25 72° 290° (WNW) 05:50:39 .
BEESAT 2 26 Sep 05:43:59 05:47:45 38° 59° (ENE) 05:51:28 435.950
AO-85 26 Sep 05:55:52 06:00:26 60° 62° (ENE) 06:05:18 145.980
RS-15 26 Sep 06:00:32 06:12:44 80° 297° (WNW) 06:25:10 29.354- 29.394
ITAMSAT 1 26 Sep 06:19:47 06:23:30 20° 292° (WNW) 06:27:13 435.822/435.867
KKS-1 26 Sep 06:34:14 06:38:15 35° 261° (W) 06:42:17 437.445
LilacSat-2 26 Sep 06:45:55 06:48:22 16° 95° (E) 06:50:47 437.200
CUTE-I 26 Sep 06:48:48 06:52:13 17° 95° (E) 06:55:38 437.470
STARS 26 Sep 06:50:07 06:54:24 62° 258° (WSW) 06:58:43 437.465
KAITUO 1B 26 Sep 06:53:53 06:55:39 13° 94° (E) 06:57:26 145.475/437.950
DOVE 4 26 Sep 06:58:40 07:03:00 72° 284° (WNW) 07:07:36 437.250
BEESAT 2 26 Sep 07:23:33 07:25:04 12° 252° (WSW) 07:26:36 435.950
XW-2D 26 Sep 07:29:03 07:32:49 66° 100° (E) 07:36:32 145.860 - 145.880
AO-7 26 Sep 07:31:18 07:33:44 12° 306° (NW) 07:36:10 .
AO-85 26 Sep 07:39:06 07:40:27 11° 252° (WSW) 07:41:49 145.980
XW-2F 26 Sep 07:39:07 07:42:54 83° 102° (ESE) 07:46:37 145.980 - 146.000
XW-2B 26 Sep 07:41:29 07:45:17 85° 282° (WNW) 07:49:02 145.730 - 145.750
HO-68 26 Sep 07:44:50 07:50:31 25° 97° (E) 07:56:10 435.675
NUDT-PHONESAT 26 Sep 07:52:46 07:56:29 86° 283° (WNW) 08:00:10 437.300
XW-2C 26 Sep 08:03:14 08:06:47 39° 285° (WNW) 08:10:17 145.795 - 145.815
CUTE 1.7 + AOD 2 26 Sep 08:06:23 08:10:03 28° 97° (E) 08:13:40 437.475
STRAND 1 26 Sep 08:09:10 08:14:10 62° 75° (ENE) 08:19:12 437.568
RS-15 26 Sep 08:18:41 08:27:25 22° 320° (NW) 08:36:12 29.354- 29.394
LilacSat-2 26 Sep 08:19:31 08:22:32 23° 287° (WNW) 08:25:32 437.200
KAITUO 1B 26 Sep 08:26:29 08:29:38 26° 286° (WNW) 08:32:44 145.475/437.950
CUTE-I 26 Sep 08:27:20 08:32:22 44° 287° (WNW) 08:37:24 437.470
XW-2A 26 Sep 08:54:54 08:58:10 43° 99° (E) 09:01:24 145.665 - 145.685
CUBEBUG 2 26 Sep 09:05:06 09:09:52 85° 100° (E) 09:14:37 437.445
UWE-3 26 Sep 09:06:00 09:10:31 47° 99° (E) 09:14:57 435.000/436.395/437.385
SEEDS 26 Sep 09:07:47 09:11:57 76° 282° (WNW) 09:16:05 437.485
AAUSAT CUBESAT 2 26 Sep 09:21:30 09:25:34 61° 101° (E) 09:29:35 437.432
HO-68 26 Sep 09:31:30 09:38:20 49° 290° (WNW) 09:45:11 435.675
Oscar 11 26 Sep 09:38:09 09:42:00 31° 98° (E) 09:45:49 .
AO-73 26 Sep 09:42:12 09:46:41 56° 100° (E) 09:51:05 145.935
CUTE 1.7 + AOD 2 26 Sep 09:42:54 09:45:35 17° 290° (WNW) 09:48:16 437.475
ZACube-1 26 Sep 09:46:50 09:51:25 74° 102° (ESE) 09:55:55 437.345
FO-29 26 Sep 09:52:05 09:57:51 69° 76° (ENE) 10:03:07 435.910
STRAND 1 26 Sep 09:52:35 09:53:38 11° 267° (W) 09:54:41 437.568
DELFI C3 26 Sep 10:23:12 10:26:05 20° 96° (E) 10:28:58 145.870
UNISAT 6 26 Sep 10:34:24 10:38:37 55° 75° (ENE) 10:42:57 437.425
PRISM 26 Sep 10:37:16 10:40:45 27° 72° (ENE) 10:44:14 437.425
UWE-3 26 Sep 10:44:16 10:46:28 13° 292° (WNW) 10:48:39 435.000/436.395/437.385
Max Valier Satellite 26 Sep 10:48:27 10:51:45 30° 98° (E) 10:55:02 145.860
TIGRISAT 26 Sep 10:57:07 11:01:25 83° 255° (WSW) 11:05:51 435.000
Oscar 11 26 Sep 11:15:09 11:17:49 16° 290° (WNW) 11:20:28 .
AO-73 26 Sep 11:21:30 11:22:19 10° 293° (WNW) 11:23:09 145.935
NO-84 26 Sep 11:28:43 11:32:14 27° 124° (SE) 11:35:35 435.350 FM
EO-88 26 Sep 11:41:56 11:45:32 59° 283° (WNW) 11:49:05 145.990 - 145.960
YUBILEINY 26 Sep 11:43:02 11:49:19 23° 84° (E) 11:55:35 435.215
DELFI C3 26 Sep 11:57:47 12:00:41 20° 288° (WNW) 12:03:35 145.870
DUCHIFAT 1 26 Sep 12:05:06 12:07:43 16° 70° (ENE) 12:10:20 145.980
PRISM 26 Sep 12:13:26 12:15:58 16° 264° (W) 12:18:30 437.425
ESTCUBE 1 26 Sep 12:14:26 12:17:51 21° 96° (E) 12:21:15 437.505/2401.250
POLYITAN 1 26 Sep 12:22:16 12:26:05 35° 73° (ENE) 12:29:57 437.675
Max Valier Satellite 26 Sep 12:23:43 12:25:14 12° 290° (WNW) 12:26:44 145.860
EO-79 26 Sep 12:25:33 12:29:28 39° 74° (ENE) 12:33:23 145.935-145.965
LO-87 26 Sep 12:28:06 12:31:37 51° 100° (E) 12:35:09 145.935 - 145.965
AIST 2D 26 Sep 12:38:45 12:42:02 35° 262° (W) 12:45:19 435.315
QB50P2 26 Sep 12:40:01 12:44:11 70° 76° (ENE) 12:48:24 145.880/145.840
O/OREOS (USA 219) 26 Sep 12:41:05 12:45:33 48° 69° (ENE) 12:49:59 437.305
RS-15 26 Sep 13:00:18 13:07:55 18° 36° (NE) 13:15:16 29.354- 29.394
SO-50 26 Sep 13:00:30 13:03:57 22° 110° (ESE) 13:07:25 436.795
Oscar 19 26 Sep 13:04:33 13:05:55 11° 65° (ENE) 13:07:18 437.125/150
NO-84 26 Sep 13:06:13 13:09:35 25° 315° (NW) 13:12:46 435.350 FM
NANOSAT C BR1 26 Sep 13:12:16 13:16:22 56° 260° (W) 13:20:30 145.865
M-CUBED/EXP-1 PRIME 26 Sep 13:28:50 13:33:11 83° 73° (ENE) 13:37:13 437.505
PCSat 26 Sep 13:30:50 13:34:24 18° 105° (ESE) 13:37:58 145.827
YUBILEINY 26 Sep 13:36:50 13:45:22 59° 279° (W) 13:53:56 435.215
DUCHIFAT 1 26 Sep 13:39:27 13:43:05 29° 262° (W) 13:46:44 145.980
SPROUT 26 Sep 13:40:06 13:44:16 50° 100° (E) 13:48:25 437.525
ESTCUBE 1 26 Sep 13:50:52 13:54:32 25° 289° (WNW) 13:58:11 437.505/2401.250
POLYITAN 1 26 Sep 13:59:56 14:01:55 13° 266° (W) 14:03:56 437.675
BUGSAT 1 26 Sep 14:01:33 14:05:32 71° 259° (W) 14:09:34 437.445
EO-79 26 Sep 14:03:47 14:05:19 12° 266° (W) 14:06:51 145.935-145.965
VELOX 1 26 Sep 14:05:02 14:09:25 71° 102° (ESE) 14:13:48 145.980
O/OREOS (USA 219) 26 Sep 14:23:09 14:24:26 11° 262° (W) 14:25:43 437.305
AO-7 26 Sep 14:38:00 14:42:52 17° 57° (ENE) 14:47:42 .
Oscar 19 26 Sep 14:39:25 14:44:35 69° 258° (WSW) 14:49:47 437.125/150
SO-50 26 Sep 14:40:23 14:44:13 27° 303° (WNW) 14:48:04 436.795
50 SAT 26 Sep 14:46:14 14:49:32 73° 103° (ESE) 14:52:49 437.505
Gurwin Techsat 1B 26 Sep 14:49:58 14:55:16 84° 257° (WSW) 15:00:36 435.225
UKube-1 26 Sep 14:50:14 14:54:04 31° 99° (E) 14:57:53 .
DX 1 26 Sep 15:03:32 15:07:53 81° 102° (ESE) 15:12:12 434.975-435.025
RS-15 26 Sep 15:11:05 15:22:56 71° 61° (ENE) 15:34:06 29.354- 29.394
PCSat 26 Sep 15:12:13 15:17:22 44° 298° (WNW) 15:22:32 145.827
SPROUT 26 Sep 15:18:59 15:19:39 10° 293° (WNW) 15:20:19 437.525
ITAMSAT 1 26 Sep 15:52:02 15:56:35 32° 71° (ENE) 16:01:08 435.822/435.867
ITUPSAT 1 26 Sep 16:21:30 16:25:56 36° 99° (E) 16:30:20 437.325
AO-7 26 Sep 16:26:12 16:34:34 86° 254° (WSW) 16:42:55 .
UKube-1 26 Sep 16:27:07 16:29:47 16° 291° (WNW) 16:32:26 .
BEESAT 26 Sep 16:55:35 17:00:24 86° 284° (WNW) 17:05:10 436.000
MOZHAYETS 4 26 Sep 16:57:56 17:02:33 77° 284° (WNW) 17:07:08
JUGNU 26 Sep 17:19:30 17:23:40 19° 166° (SSE) 17:27:49 437.505
RS-15 26 Sep 17:25:32 17:34:06 25° 258° (WSW) 17:42:25 29.354- 29.394
ITAMSAT 1 26 Sep 17:32:03 17:35:59 22° 263° (W) 17:39:58 435.822/435.867
CUBESAT XI-V 26 Sep 17:33:13 17:37:39 47° 99° (E) 17:42:04 437.345
Tancredo 1 26 Sep 17:35:46 17:37:57 23° 129° (SE) 17:40:09 437.200
DOVE 4 26 Sep 17:58:29 18:02:50 56° 76° (ENE) 18:06:59 437.250
ITUPSAT 1 26 Sep 18:00:14 18:03:25 18° 292° (WNW) 18:06:34 437.325
CUTE-I 26 Sep 18:05:31 18:08:47 17° 67° (ENE) 18:12:02 437.470
XW-2D 26 Sep 18:05:58 18:08:00 14° 70° (ENE) 18:10:02 145.860 - 145.880
XW-2F 26 Sep 18:15:09 18:17:37 17° 71° (ENE) 18:20:06 145.980 - 146.000
XW-2B 26 Sep 18:17:39 18:20:24 19° 72° (ENE) 18:23:10 145.730 - 145.750
AO-7 26 Sep 18:25:07 18:28:03 12° 267° (W) 18:30:59 .
NUDT-PHONESAT 26 Sep 18:27:00 18:29:30 17° 71° (ENE) 18:32:00 437.300
nSIGHT-1 26 Sep 18:30:00 18:31:15 12° 125° (SE) 18:32:31 .
KKS-1 26 Sep 18:30:12 18:34:38 67° 102° (ESE) 18:39:03 437.445
XW-2C 26 Sep 18:38:19 18:41:51 37° 75° (ENE) 18:45:25 145.795 - 145.815
STARS 26 Sep 18:45:07 18:49:10 35° 99° (E) 18:53:13 437.465
SRMSAT 26 Sep 18:53:31 18:54:48 11° 160° (SSE) 18:56:05 437.500
LilacSat-2 26 Sep 18:54:26 18:58:16 70° 77° (ENE) 19:02:08 437.200
CUTE 1.7 + AOD 2 26 Sep 18:56:04 18:56:50 10° 68° (ENE) 18:57:36 437.475
KAITUO 1B 26 Sep 18:59:43 19:03:24 52° 76° (ENE) 19:07:06 145.475/437.950
JUGNU 26 Sep 19:07:06 19:12:10 29° 175° (S) 19:17:14 437.505
Tancredo 1 26 Sep 19:10:49 19:12:20 14° 322° (NW) 19:13:52 437.200
CUBESAT XI-V 26 Sep 19:12:36 19:14:32 13° 293° (WNW) 19:16:29 437.345
BEESAT 3 26 Sep 19:13:33 19:17:30 71° 115° (ESE) 19:21:30 437.485
BEESAT 2 26 Sep 19:29:43 19:33:03 26° 111° (ESE) 19:36:27 435.950
ISS 26 Sep 19:31:21 19:34:34 68° 132° (SE) 19:37:48 437.550
XW-2D 26 Sep 19:38:33 19:41:52 28° 263° (W) 19:45:13 145.860 - 145.880
CUTE-I 26 Sep 19:43:17 19:48:22 47° 260° (W) 19:53:29 437.470
NO-84 26 Sep 19:45:51 19:46:39 11° 39° (NE) 19:47:26 435.350 FM
XW-2F 26 Sep 19:48:26 19:51:30 23° 263° (W) 19:54:35 145.980 - 146.000
XW-2B 26 Sep 19:51:31 19:54:24 20° 264° (W) 19:57:17 145.730 - 145.750
HO-68 26 Sep 19:52:55 19:59:59 71° 73° (ENE) 20:07:06 435.675
SEEDS 26 Sep 19:53:33 19:57:21 32° 74° (ENE) 20:01:08 437.485
CUBEBUG 2 26 Sep 19:57:42 20:01:27 32° 73° (ENE) 20:05:21 437.445
UWE-3 26 Sep 19:58:13 20:01:08 18° 70° (ENE) 20:04:06 435.000/436.395/437.385
NUDT-PHONESAT 26 Sep 20:00:15 20:03:09 21° 264° (W) 20:06:03 437.300
nSIGHT-1 26 Sep 20:04:16 20:07:15 37° 317° (NW) 20:10:17 .
AO-85 26 Sep 20:05:21 20:09:15 77° 117° (ESE) 20:13:09 145.980
AAUSAT CUBESAT 2 26 Sep 20:06:36 20:09:31 19° 71° (ENE) 20:12:26 437.432
XW-2C 26 Sep 20:15:59 20:16:07 10° 267° (W) 20:16:14 145.795 - 145.815
STARS 26 Sep 20:22:36 20:25:09 15° 291° (WNW) 20:27:42 437.465
STRAND 1 26 Sep 20:25:42 20:30:22 34° 98° (E) 20:35:01 437.568
CUTE 1.7 + AOD 2 26 Sep 20:28:01 20:32:09 49° 260° (W) 20:36:18 437.475
Oscar 11 26 Sep 20:29:01 20:30:52 13° 68° (ENE) 20:32:43 .
AO-73 26 Sep 20:32:29 20:35:44 21° 71° (ENE) 20:39:02 145.935
ZACube-1 26 Sep 20:37:03 20:40:42 27° 72° (ENE) 20:44:25 437.345
SRMSAT 26 Sep 20:38:55 20:43:24 22° 168° (SSE) 20:47:51 437.500
XW-2A 26 Sep 20:52:25 20:55:44 52° 261° (W) 20:59:05 145.665 - 145.685
JUGNU 26 Sep 20:55:42 21:00:44 28° 186° (S) 21:05:45 437.505
BEESAT 2 26 Sep 21:07:53 21:10:44 19° 305° (NW) 21:13:37 435.950
FO-29 26 Sep 21:09:54 21:10:54 10° 95° (E) 21:11:56 435.910
ISS 26 Sep 21:10:33 21:11:21 11° 327° (NNW) 21:12:08 437.550
NO-84 26 Sep 21:21:28 21:24:07 32° 235° (SW) 21:26:41 435.350 FM
SEEDS 26 Sep 21:30:41 21:33:02 15° 266° (W) 21:35:23 437.485
UWE-3 26 Sep 21:33:37 21:37:18 28° 263° (W) 21:41:07 435.000/436.395/437.385
CUBEBUG 2 26 Sep 21:35:42 21:38:08 15° 266° (W) 21:40:37 437.445
AAUSAT CUBESAT 2 26 Sep 21:41:19 21:44:45 25° 263° (W) 21:48:10 437.432
HO-68 26 Sep 21:44:04 21:48:07 16° 266° (W) 21:52:12 435.675
Oscar 11 26 Sep 22:02:27 22:06:34 42° 261° (W) 22:10:42 .
STRAND 1 26 Sep 22:05:26 22:09:15 21° 291° (WNW) 22:13:05 437.568
AO-73 26 Sep 22:08:12 22:11:45 25° 264° (W) 22:15:23 145.935
ZACube-1 26 Sep 22:13:49 22:16:54 19° 265° (W) 22:20:03 437.345
EO-88 26 Sep 22:14:15 22:17:06 22° 73° (ENE) 22:19:57 145.990 - 145.960
SRMSAT 26 Sep 22:26:59 22:32:03 30° 178° (S) 22:37:08 437.500
UNISAT 6 26 Sep 22:32:21 22:35:47 20° 95° (E) 22:39:13 437.425
DELFI C3 26 Sep 22:35:57 22:39:53 85° 258° (WSW) 22:43:50 145.870
JUGNU 26 Sep 22:45:15 22:49:13 18° 195° (SSW) 22:53:11 437.505
FO-29 26 Sep 22:50:19 22:56:08 80° 284° (WNW) 23:02:42 435.910
TIGRISAT 26 Sep 22:54:19 22:58:33 33° 98° (E) 23:02:46 435.000
Max Valier Satellite 26 Sep 22:54:24 22:58:03 64° 259° (W) 23:01:45 145.860
ESTCUBE 1 26 Sep 23:11:01 23:11:43 10° 67° (ENE) 23:12:25 437.505/2401.250
SO-50 26 Sep 23:16:03 23:20:34 52° 60° (ENE) 23:25:06 436.795
EO-88 26 Sep 23:48:22 23:50:39 16° 265° (W) 23:52:55 145.990 - 145.960
